Antonios — SY8410 — position and weather

sailwx.info

Track history (hours):
 
Tides and Currents Weather Stations Pressure Air Temp Water Temp Dewpoint Dewpoint Depression Visibility Wind Speed Wind Dir Waves Ship Positions

Antonios

Last reported at 2014-Jul-22 15:31 UTC. Time now 2014-Jul-23 08:04 UTC.
Position N 36°55' E 026°57'.

Length 57 m; draft 2.9 m.

Type: Tanker. MMSI: 239191300.

Date/timePositionNaut miles runAvg speedWind from/ knotsBaromVisibWave heightAir tempDewpointWater temp
2014-Jul-22 15:31N 36°55' E 026°57'1110.0
2014-Jul-22 14:25N 36°59' E 026°44'9 9.9
2014-Jul-22 13:33N 37°01' E 026°34'1010.1
2014-Jul-22 12:31N 37°04' E 026°21'1010.3
2014-Jul-22 11:33N 37°07' E 026°10'1010.4
2014-Jul-22 10:33N 37°09' E 025°57'1110.5
2014-Jul-22 09:33N 37°11' E 025°44'1110.3
2014-Jul-22 08:27N 37°14' E 025°30'9 9.8
2014-Jul-22 07:33N 37°16' E 025°19'10 9.7
2014-Jul-22 06:33N 37°18' E 025°07'10 9.9
2014-Jul-22 05:33N 37°20' E 024°55'10 9.9
2014-Jul-22 04:32N 37°24' E 024°43'10 9.7
2014-Jul-22 03:32N 37°28' E 024°32'4110.4
2014-Jul-21 23:32N 37°40' E 023°42'10 9.9
2014-Jul-21 22:33N 37°48' E 023°35'1010.3
2014-Jul-21 21:33N 37°51' E 023°23'1310.1
2014-Jul-21 20:14N 37°55' E 023°06'1 1.2
2014-Jul-21 19:31N 37°55' E 023°05'0 0.0
2014-Jul-21 18:31N 37°55' E 023°05'0 0.0
2014-Jul-21 17:27N 37°55' E 023°05'0 0.0
2014-Jul-21 16:33N 37°55' E 023°05'0 0.0
2014-Jul-21 15:32N 37°55' E 023°05'0 0.0
2014-Jul-21 14:31N 37°55' E 023°05'4 1.6
2014-Jul-21 12:11N 37°52' E 023°09'711.1
2014-Jul-21 11:33N 37°47' E 023°14'1010.4
2014-Jul-21 10:33N 37°39' E 023°23'4610.2
2014-Jul-21 06:03N 37°14' E 024°12'8 9.5
2014-Jul-21 05:10N 37°09' E 024°20'10 9.9
2014-Jul-21 04:12N 37°02' E 024°28'7 9.9
2014-Jul-21 03:30N 36°58' E 024°35'9 9.8
2014-Jul-21 02:32N 36°53' E 024°45'10 9.8
2014-Jul-21 01:32N 36°51' E 024°57'1110.8
2014-Jul-21 00:32N 36°50' E 025°11'1010.4
2014-Jul-20 23:33N 36°48' E 025°23'1010.3
2014-Jul-20 22:33N 36°47' E 025°36'10 9.8
2014-Jul-20 21:33N 36°45' E 025°48'19 9.4
2014-Jul-20 19:30N 36°53' E 026°09'7 6.2
2014-Jul-20 18:23N 36°54' E 026°18'  
2014-Jul-18 01:33N 37°05' E 026°17'1110.9
2014-Jul-18 00:33N 37°07' E 026°04'1110.7
2014-Jul-17 23:33N 37°10' E 025°50'1111.2
2014-Jul-17 22:33N 37°12' E 025°37'10 9.6
2014-Jul-17 21:33N 37°10' E 025°25'4 4.2
2014-Jul-17 20:33N 37°06' E 025°22'0 0.0
2014-Jul-17 19:33N 37°06' E 025°22'0 0.0
2014-Jul-17 18:33N 37°06' E 025°22'0 0.0
2014-Jul-17 17:33N 37°06' E 025°22'0 0.5
2014-Jul-17 16:33N 37°06' E 025°22'0 0.1
2014-Jul-17 15:33N 37°06' E 025°22'0 0.4
2014-Jul-17 14:33N 37°06' E 025°21'9 9.0
2014-Jul-17 13:32N 36°57' E 025°20'1010.0
2014-Jul-17 12:32N 36°47' E 025°23'10 9.7
2014-Jul-17 11:33N 36°38' E 025°24'1010.1
2014-Jul-17 10:33N 36°28' E 025°22'6 5.7
2014-Jul-17 09:33N 36°23' E 025°26'0 0.0
2014-Jul-17 08:28N 36°23' E 025°26'0 0.0
2014-Jul-17 07:29N 36°23' E 025°26'0 0.0
2014-Jul-17 06:32N 36°23' E 025°26'0 0.0
2014-Jul-17 05:33N 36°23' E 025°26'2 2.1
2014-Jul-17 04:33N 36°25' E 025°24'7 7.1
2014-Jul-17 03:33N 36°32' E 025°28'1110.3
2014-Jul-17 02:32N 36°35' E 025°40'10 9.8
2014-Jul-17 01:33N 36°38' E 025°51'11 9.9
2014-Jul-17 00:29N 36°42' E 026°04'910.1
2014-Jul-16 23:33N 36°45' E 026°15'  
2014-Jul-14 17:30N 36°59' E 026°42'1010.5
2014-Jul-14 16:33N 37°02' E 026°30'1110.7
2014-Jul-14 15:33N 37°05' E 026°17'1010.3
2014-Jul-14 14:33N 37°08' E 026°04'1110.8
2014-Jul-14 13:32N 37°10' E 025°51'1010.3
2014-Jul-14 12:33N 37°12' E 025°39'1010.3
2014-Jul-14 11:33N 37°15' E 025°26'1110.5
2014-Jul-14 10:33N 37°17' E 025°13'1010.0
2014-Jul-14 09:33N 37°19' E 025°01'1010.1
2014-Jul-14 08:33N 37°22' E 024°49'1010.5
2014-Jul-14 07:33N 37°26' E 024°37'2210.3
2014-Jul-14 05:25N 37°32' E 024°10'1211.0
2014-Jul-14 04:20N 37°36' E 023°56'910.5
2014-Jul-14 03:31N 37°39' E 023°46'10 9.9
2014-Jul-14 02:33N 37°47' E 023°38'1010.4
2014-Jul-14 01:33N 37°50' E 023°26'3 0.2
2014-Jul-13 12:33N 37°50' E 023°30'9 9.4
2014-Jul-13 11:33N 37°47' E 023°41'1010.1
2014-Jul-13 10:32N 37°39' E 023°49'1210.2
2014-Jul-13 09:21N 37°35' E 024°03'2010.3
2014-Jul-13 07:27N 37°29' E 024°26'1010.5
2014-Jul-13 06:32N 37°26' E 024°38'1010.4
2014-Jul-13 05:32N 37°22' E 024°50'1211.1
2014-Jul-13 04:29N 37°18' E 025°04'1010.6
2014-Jul-13 03:33N 37°16' E 025°16'1110.7
2014-Jul-13 02:34N 37°14' E 025°29'1110.5
2014-Jul-13 01:33N 37°11' E 025°42'1010.1
2014-Jul-13 00:33N 37°09' E 025°54'1010.0
2014-Jul-12 23:33N 37°06' E 026°06'1010.1
2014-Jul-12 22:33N 37°05' E 026°19'1010.1
2014-Jul-12 21:31N 37°02' E 026°31'  
Track history (hours):
 
Tides and Currents Weather Stations Pressure Air Temp Water Temp Dewpoint Dewpoint Depression Visibility Wind Speed Wind Dir Waves Ship Positions

Antonios

Last reported at 2014-Jul-22 15:31 UTC. Time now 2014-Jul-23 08:04 UTC.
Position N 36°55' E 026°57'.

Length 57 m; draft 2.9 m.

Type: Tanker. MMSI: 239191300.

Date/timePositionNaut miles runAvg speedWind from/ knotsBaromVisibWave heightAir tempDewpointWater temp
2014-Jul-22 15:31N 36°55' E 026°57'1110.0
2014-Jul-22 14:25N 36°59' E 026°44'9 9.9
2014-Jul-22 13:33N 37°01' E 026°34'1010.1
2014-Jul-22 12:31N 37°04' E 026°21'1010.3
2014-Jul-22 11:33N 37°07' E 026°10'1010.4
2014-Jul-22 10:33N 37°09' E 025°57'1110.5
2014-Jul-22 09:33N 37°11' E 025°44'1110.3
2014-Jul-22 08:27N 37°14' E 025°30'9 9.8
2014-Jul-22 07:33N 37°16' E 025°19'10 9.7
2014-Jul-22 06:33N 37°18' E 025°07'10 9.9
2014-Jul-22 05:33N 37°20' E 024°55'10 9.9
2014-Jul-22 04:32N 37°24' E 024°43'10 9.7
2014-Jul-22 03:32N 37°28' E 024°32'4110.4
2014-Jul-21 23:32N 37°40' E 023°42'10 9.9
2014-Jul-21 22:33N 37°48' E 023°35'1010.3
2014-Jul-21 21:33N 37°51' E 023°23'1310.1
2014-Jul-21 20:14N 37°55' E 023°06'1 1.2
2014-Jul-21 19:31N 37°55' E 023°05'0 0.0
2014-Jul-21 18:31N 37°55' E 023°05'0 0.0
2014-Jul-21 17:27N 37°55' E 023°05'0 0.0
2014-Jul-21 16:33N 37°55' E 023°05'0 0.0
2014-Jul-21 15:32N 37°55' E 023°05'0 0.0
2014-Jul-21 14:31N 37°55' E 023°05'4 1.6
2014-Jul-21 12:11N 37°52' E 023°09'711.1
2014-Jul-21 11:33N 37°47' E 023°14'1010.4
2014-Jul-21 10:33N 37°39' E 023°23'4610.2
2014-Jul-21 06:03N 37°14' E 024°12'8 9.5
2014-Jul-21 05:10N 37°09' E 024°20'10 9.9
2014-Jul-21 04:12N 37°02' E 024°28'7 9.9
2014-Jul-21 03:30N 36°58' E 024°35'9 9.8
2014-Jul-21 02:32N 36°53' E 024°45'10 9.8
2014-Jul-21 01:32N 36°51' E 024°57'1110.8
2014-Jul-21 00:32N 36°50' E 025°11'1010.4
2014-Jul-20 23:33N 36°48' E 025°23'1010.3
2014-Jul-20 22:33N 36°47' E 025°36'10 9.8
2014-Jul-20 21:33N 36°45' E 025°48'19 9.4
2014-Jul-20 19:30N 36°53' E 026°09'7 6.2
2014-Jul-20 18:23N 36°54' E 026°18'  
2014-Jul-18 01:33N 37°05' E 026°17'1110.9
2014-Jul-18 00:33N 37°07' E 026°04'1110.7
2014-Jul-17 23:33N 37°10' E 025°50'1111.2
2014-Jul-17 22:33N 37°12' E 025°37'10 9.6
2014-Jul-17 21:33N 37°10' E 025°25'4 4.2
2014-Jul-17 20:33N 37°06' E 025°22'0 0.0
2014-Jul-17 19:33N 37°06' E 025°22'0 0.0
2014-Jul-17 18:33N 37°06' E 025°22'0 0.0
2014-Jul-17 17:33N 37°06' E 025°22'0 0.5
2014-Jul-17 16:33N 37°06' E 025°22'0 0.1
2014-Jul-17 15:33N 37°06' E 025°22'0 0.4
2014-Jul-17 14:33N 37°06' E 025°21'9 9.0
2014-Jul-17 13:32N 36°57' E 025°20'1010.0
2014-Jul-17 12:32N 36°47' E 025°23'10 9.7
2014-Jul-17 11:33N 36°38' E 025°24'1010.1
2014-Jul-17 10:33N 36°28' E 025°22'6 5.7
2014-Jul-17 09:33N 36°23' E 025°26'0 0.0
2014-Jul-17 08:28N 36°23' E 025°26'0 0.0
2014-Jul-17 07:29N 36°23' E 025°26'0 0.0
2014-Jul-17 06:32N 36°23' E 025°26'0 0.0
2014-Jul-17 05:33N 36°23' E 025°26'2 2.1
2014-Jul-17 04:33N 36°25' E 025°24'7 7.1
2014-Jul-17 03:33N 36°32' E 025°28'1110.3
2014-Jul-17 02:32N 36°35' E 025°40'10 9.8
2014-Jul-17 01:33N 36°38' E 025°51'11 9.9
2014-Jul-17 00:29N 36°42' E 026°04'910.1
2014-Jul-16 23:33N 36°45' E 026°15'  
2014-Jul-14 17:30N 36°59' E 026°42'1010.5
2014-Jul-14 16:33N 37°02' E 026°30'1110.7
2014-Jul-14 15:33N 37°05' E 026°17'1010.3
2014-Jul-14 14:33N 37°08' E 026°04'1110.8
2014-Jul-14 13:32N 37°10' E 025°51'1010.3
2014-Jul-14 12:33N 37°12' E 025°39'1010.3
2014-Jul-14 11:33N 37°15' E 025°26'1110.5
2014-Jul-14 10:33N 37°17' E 025°13'1010.0
2014-Jul-14 09:33N 37°19' E 025°01'1010.1
2014-Jul-14 08:33N 37°22' E 024°49'1010.5
2014-Jul-14 07:33N 37°26' E 024°37'2210.3
2014-Jul-14 05:25N 37°32' E 024°10'1211.0
2014-Jul-14 04:20N 37°36' E 023°56'910.5
2014-Jul-14 03:31N 37°39' E 023°46'10 9.9
2014-Jul-14 02:33N 37°47' E 023°38'1010.4
2014-Jul-14 01:33N 37°50' E 023°26'3 0.2
2014-Jul-13 12:33N 37°50' E 023°30'9 9.4
2014-Jul-13 11:33N 37°47' E 023°41'1010.1
2014-Jul-13 10:32N 37°39' E 023°49'1210.2
2014-Jul-13 09:21N 37°35' E 024°03'2010.3
2014-Jul-13 07:27N 37°29' E 024°26'1010.5
2014-Jul-13 06:32N 37°26' E 024°38'1010.4
2014-Jul-13 05:32N 37°22' E 024°50'1211.1
2014-Jul-13 04:29N 37°18' E 025°04'1010.6
2014-Jul-13 03:33N 37°16' E 025°16'1110.7
2014-Jul-13 02:34N 37°14' E 025°29'1110.5
2014-Jul-13 01:33N 37°11' E 025°42'1010.1
2014-Jul-13 00:33N 37°09' E 025°54'1010.0
2014-Jul-12 23:33N 37°06' E 026°06'1010.1
2014-Jul-12 22:33N 37°05' E 026°19'1010.1
2014-Jul-12 21:31N 37°02' E 026°31'  

Dump ship's entire track history